Weather History for Philadelphia Wings Airport, PA

Change the Weather History Date:

Sunday, January 26, 2014

  Actual Average (KPNE) Record (KPNE)
Temperature  
Mean Temperature 24 °F -  
Max Temperature 32 °F 36 °F 55 °F (2002)
Min Temperature 17 °F 22 °F 10 °F (2007)
Degree Days  
Heating Degree Days 40    
Moisture  
Dew Point 10 °F    
Average Humidity 53    
Maximum Humidity 75    
Minimum Humidity 34    
Precipitation  
Precipitation 0.00 in - - ()
Sea Level Pressure  
Sea Level Pressure 29.80 in    
Wind  
Wind Speed 6 mph (WSW)    
Max Wind Speed 14 mph    
Max Gust Speed 23 mph    
Visibility 10 miles    
Events      
Averages and records for this station are not official NWS values.
T = Trace of Precipitation, MM = Missing Value Source: NWS Daily Summary

Daily Weather History Graph

Daily Weather History Graph

Search for Another Location

Airport:

Trip Planner

Search our weather history database for the weather conditions in past years. The results will help you decide how hot, cold, wet, or windy it might be!

Date:

Astronomy

Jan. 26, 2014 Rise Set
Actual Time 7:14 AM EST 5:12 PM EST
Civil Twilight 6:45 AM EST 5:41 PM EST
Nautical Twilight 6:13 AM EST 6:14 PM EST
Astronomical Twilight 5:40 AM EST 6:46 PM EST
Moon 2:49 AM EST (1/26) 12:59 PM EST (1/26)
Length of Visible Light 10h 55m
Length of Day
9h 57m
Waning Crescent, 24% of the Moon is Illuminated
Jan 26
Waning Crescent
Jan 30
New
Feb 6
First Quarter
Feb 14
Full
Feb 22
Last Quarter

Hourly Weather History & Observations

Time (EST) Temp. Windchill Dew Point Humidity Pressure Visibility Wind Dir Wind Speed Gust Speed Precip Events Conditions
12:15 AM 30.2 °F 24.3 °F 23.0 °F 75% 29.54 in 7.0 mi West 5.8 mph 18.4 mph N/A   Mostly Cloudy
12:35 AM 28.4 °F 17.5 °F 19.4 °F 69% 29.55 in 10.0 mi West 13.8 mph 23.0 mph N/A   Scattered Clouds
12:55 AM 28.4 °F 19.1 °F 19.4 °F 69% 29.57 in 10.0 mi West 10.4 mph 21.9 mph N/A   Clear
1:15 AM 26.6 °F 17.5 °F 14.0 °F 59% 29.59 in 10.0 mi West 9.2 mph 16.1 mph N/A   Clear
1:35 AM 26.6 °F 16.8 °F 10.4 °F 51% 29.61 in 10.0 mi West 10.4 mph 21.9 mph N/A   Clear
1:55 AM 26.6 °F 17.5 °F 8.6 °F 47% 29.63 in 10.0 mi WNW 9.2 mph 20.7 mph N/A   Clear
2:15 AM 24.8 °F 16.1 °F 6.8 °F 46% 29.66 in 10.0 mi WNW 8.1 mph 17.3 mph N/A   Clear
2:35 AM 24.8 °F 16.1 °F 5.0 °F 43% 29.68 in 10.0 mi WNW 8.1 mph 16.1 mph N/A   Clear
2:55 AM 23.0 °F 13.1 °F 5.0 °F 46% 29.70 in 10.0 mi WNW 9.2 mph 17.3 mph N/A   Clear
3:15 AM 23.0 °F 12.4 °F 3.2 °F 43% 29.71 in 10.0 mi WNW 10.4 mph - N/A   Clear
3:35 AM 23.0 °F 13.9 °F 1.4 °F 39% 29.72 in 10.0 mi WNW 8.1 mph 17.3 mph N/A   Clear
3:55 AM 23.0 °F 13.9 °F 1.4 °F 39% 29.73 in 10.0 mi West 8.1 mph 18.4 mph N/A   Clear
4:15 AM 21.2 °F 12.6 °F 1.4 °F 42% 29.73 in 10.0 mi WNW 6.9 mph 17.3 mph N/A   Clear
4:35 AM 21.2 °F 13.6 °F 1.4 °F 42% 29.75 in 10.0 mi West 5.8 mph 16.1 mph N/A   Clear
4:55 AM 21.2 °F 14.9 °F 1.4 °F 42% 29.76 in 10.0 mi WNW 4.6 mph - N/A   Clear
5:15 AM 19.4 °F 10.4 °F 1.4 °F 46% 29.77 in 10.0 mi WNW 6.9 mph - N/A   Clear
5:35 AM 19.4 °F 12.8 °F 1.4 °F 46% 29.79 in 10.0 mi WNW 4.6 mph - N/A   Clear
5:55 AM 19.4 °F 14.3 °F 1.4 °F 46% 29.80 in 10.0 mi West 3.5 mph - N/A   Clear
6:15 AM 17.6 °F - -0.4 °F 45% 29.81 in 10.0 mi Calm Calm - N/A   Clear
6:35 AM 17.6 °F - 1.4 °F 49% 29.83 in 10.0 mi Calm Calm - N/A   Clear
6:55 AM 17.6 °F - 1.4 °F 49% 29.85 in 10.0 mi Calm Calm - N/A   Scattered Clouds
7:15 AM 17.6 °F - 3.2 °F 53% 29.87 in 10.0 mi Calm Calm - N/A   Mostly Cloudy
7:35 AM 17.6 °F 10.7 °F 3.2 °F 53% 29.88 in 10.0 mi WSW 4.6 mph - N/A   Scattered Clouds
7:55 AM 17.6 °F 12.3 °F 5.0 °F 58% 29.88 in 10.0 mi WSW 3.5 mph - N/A   Scattered Clouds
8:15 AM 19.4 °F - 5.0 °F 54% 29.89 in 10.0 mi Calm Calm - N/A   Scattered Clouds
8:35 AM 21.2 °F 14.9 °F 8.6 °F 58% 29.89 in 10.0 mi West 4.6 mph - N/A   Scattered Clouds
8:55 AM 21.2 °F 13.6 °F 8.6 °F 58% 29.89 in 10.0 mi WSW 5.8 mph - N/A   Scattered Clouds
9:15 AM 21.2 °F 12.6 °F 8.6 °F 58% 29.92 in 10.0 mi WSW 6.9 mph - N/A   Clear
9:35 AM 21.2 °F 11.7 °F 8.6 °F 58% 29.92 in 10.0 mi WSW 8.1 mph - N/A   Clear
9:55 AM 23.0 °F 17.0 °F 5.0 °F 46% 29.92 in 10.0 mi WSW 4.6 mph - N/A   Scattered Clouds
10:15 AM 23.0 °F 13.1 °F 1.4 °F 39% 29.92 in 10.0 mi West 9.2 mph - N/A   Scattered Clouds
10:35 AM 23.0 °F 13.9 °F 1.4 °F 39% 29.91 in 10.0 mi West 8.1 mph - N/A   Clear
10:55 AM 23.0 °F 14.7 °F 1.4 °F 39% 29.90 in 10.0 mi WNW 6.9 mph - N/A   Clear
11:15 AM 24.8 °F 19.1 °F 1.4 °F 36% 29.89 in 10.0 mi West 4.6 mph - N/A   Clear
11:35 AM 26.6 °F 18.2 °F 1.4 °F 34% 29.88 in 10.0 mi WSW 8.1 mph - N/A   Clear
11:55 AM 26.6 °F 17.5 °F 1.4 °F 34% 29.86 in 10.0 mi West 9.2 mph - N/A   Clear
12:15 PM 26.6 °F 19.1 °F 1.4 °F 34% 29.85 in 10.0 mi West 6.9 mph - N/A   Clear
12:35 PM 26.6 °F 20.0 °F 1.4 °F 34% 29.85 in 10.0 mi West 5.8 mph - N/A   Clear
12:55 PM 26.6 °F 20.0 °F 1.4 °F 34% 29.85 in 10.0 mi WSW 5.8 mph - N/A   Clear
1:15 PM 26.6 °F 20.0 °F 1.4 °F 34% 29.84 in 10.0 mi WSW 5.8 mph - N/A   Clear
1:35 PM 26.6 °F 20.0 °F 3.2 °F 37% 29.85 in 10.0 mi WSW 5.8 mph - N/A   Clear
1:55 PM 26.6 °F 22.6 °F 3.2 °F 37% 29.85 in 10.0 mi SW 3.5 mph - N/A   Clear
2:15 PM 26.6 °F 19.1 °F 5.0 °F 40% 29.86 in 10.0 mi WSW 6.9 mph - N/A   Clear
2:35 PM 26.6 °F 20.0 °F 6.8 °F 43% 29.85 in 10.0 mi WSW 5.8 mph - N/A   Scattered Clouds
2:55 PM 26.6 °F 21.2 °F 8.6 °F 47% 29.85 in 10.0 mi WSW 4.6 mph - N/A   Scattered Clouds
3:15 PM 26.6 °F 20.0 °F 8.6 °F 47% 29.83 in 10.0 mi SSW 5.8 mph - N/A   Mostly Cloudy
3:35 PM 28.4 °F 19.7 °F 8.6 °F 43% 29.83 in 10.0 mi South 9.2 mph - N/A   Scattered Clouds
3:55 PM 28.4 °F 18.5 °F 12.2 °F 51% 29.84 in 10.0 mi SSW 11.5 mph 17.3 mph N/A   Scattered Clouds
4:15 PM 26.6 °F 17.5 °F 14.0 °F 59% 29.81 in 10.0 mi South 9.2 mph - N/A   Scattered Clouds
4:35 PM 26.6 °F 20.0 °F 15.8 °F 64% 29.83 in 10.0 mi SSW 5.8 mph - N/A   Mostly Cloudy
4:55 PM 26.6 °F 20.0 °F 17.6 °F 69% 29.84 in 10.0 mi South 5.8 mph - N/A   Overcast
5:15 PM 26.6 °F 20.0 °F 17.6 °F 69% 29.83 in 10.0 mi South 5.8 mph - N/A   Overcast
5:35 PM 26.6 °F 22.6 °F 19.4 °F 74% 29.83 in 10.0 mi South 3.5 mph - N/A   Overcast
5:55 PM 26.6 °F 21.2 °F 19.4 °F 74% 29.83 in 10.0 mi SSE 4.6 mph - N/A   Overcast
6:15 PM 26.6 °F 20.0 °F 19.4 °F 74% 29.82 in 10.0 mi South 5.8 mph - N/A   Overcast
6:35 PM 26.6 °F 19.1 °F 19.4 °F 74% 29.82 in 10.0 mi South 6.9 mph - N/A   Overcast
6:55 PM 26.6 °F - 19.4 °F 74% 29.82 in 10.0 mi Calm Calm - N/A   Overcast
7:15 PM 26.6 °F - 17.6 °F 69% 29.82 in 10.0 mi Calm Calm - N/A   Overcast
7:35 PM 26.6 °F - 17.6 °F 69% 29.81 in 10.0 mi Calm Calm - N/A   Overcast
7:55 PM 28.4 °F - 17.6 °F 64% 29.81 in 10.0 mi Calm Calm - N/A   Overcast
8:15 PM 28.4 °F - 17.6 °F 64% 29.81 in 10.0 mi Calm Calm - N/A   Overcast
8:35 PM 28.4 °F 24.6 °F 17.6 °F 64% 29.81 in 10.0 mi South 3.5 mph - N/A   Overcast
8:55 PM 28.4 °F 24.6 °F 17.6 °F 64% 29.81 in 10.0 mi South 3.5 mph - N/A   Overcast
9:15 PM 28.4 °F 24.6 °F 17.6 °F 64% 29.81 in 10.0 mi South 3.5 mph - N/A   Overcast
9:35 PM 28.4 °F - 17.6 °F 64% 29.80 in 10.0 mi Calm Calm - N/A   Overcast
9:55 PM 30.2 °F - 17.6 °F 60% 29.79 in 10.0 mi Calm Calm - N/A   Overcast
10:15 PM 30.2 °F 25.4 °F 17.6 °F 60% 29.78 in 10.0 mi South 4.6 mph - N/A   Overcast
10:35 PM 30.2 °F 25.4 °F 19.4 °F 64% 29.77 in 10.0 mi South 4.6 mph - N/A   Overcast
10:55 PM 32.0 °F - 19.4 °F 60% 29.76 in 10.0 mi Calm Calm - N/A   Overcast
11:15 PM 30.2 °F - 19.4 °F 64% 29.76 in 10.0 mi Calm Calm - N/A   Mostly Cloudy
11:35 PM 26.6 °F - 19.4 °F 74% 29.75 in 10.0 mi Calm Calm - N/A   Mostly Cloudy
11:55 PM 26.6 °F - 19.4 °F 74% 29.75 in 10.0 mi Calm Calm - N/A   Scattered Clouds